Laurinburg-Maxton, NC

12:19 PM EDT on March 28, 2017 (GMT -0400)
Laurinburg-Maxton

Weather History for KMEB - October, 2012

Change the Weather History Date:

Tuesday, October 2, 2012

  Actual Average (KHFF) Record (KHFF)
Temperature  
Mean Temperature 80 °F -  
Max Temperature 89 °F 75 °F 87 °F (2002)
Min Temperature 73 °F 55 °F 45 °F (2008)
Cooling Degree Days 15    
Growing Degree Days 30 (Base 50)    
Moisture  
Dew Point 73 °F    
Average Humidity 88    
Maximum Humidity 100    
Minimum Humidity 57    
Precipitation  
Precipitation 0.04 in - - ()
Sea Level Pressure  
Sea Level Pressure 29.87 in    
Wind  
Wind Speed 7 mph (South)    
Max Wind Speed 14 mph    
Max Gust Speed 18 mph    
Visibility 9 miles    
Events Rain    
Averages and records for this station are not official NWS values.
T = Trace of Precipitation, MM = Missing Value Source: NWS Daily Summary

Daily Weather History Graph

Daily Weather History Graph

Search for Another Location

Airport or City:

Trip Planner

Search our weather history database for the weather conditions in past years. The results will help you decide how hot, cold, wet, or windy it might be!

Date:

Astronomy

Oct. 02, 2012 Rise Set
Actual Time 7:13 AM EDT 6:59 PM EDT
Civil Twilight 6:48 AM EDT 7:24 PM EDT
Nautical Twilight 6:18 AM EDT 7:53 PM EDT
Astronomical Twilight 5:49 AM EDT 8:23 PM EDT
Moon 8:19 PM EDT (10/2) 9:30 AM EDT (10/2)
Length of Visible Light 12h 36m
Length of Day
11h 46m
Waning Gibbous, 94% of the Moon is Illuminated
Oct 2
Waning Gibbous
Oct 8
Last Quarter
Oct 15
New
Oct 21
First Quarter
Oct 29
Full

Hourly Weather History & Observations

Time (EDT) Temp. Heat Index Dew Point Humidity Pressure Visibility Wind Dir Wind Speed Gust Speed Precip Events Conditions
12:52 AM 73.9 °F - 73.0 °F 97% 29.83 in 10.0 mi SSE 6.9 mph - N/A   Overcast
1:52 AM 73.9 °F - 73.0 °F 97% 29.83 in 8.0 mi SE 8.1 mph - N/A   Overcast
2:52 AM 73.9 °F - 73.0 °F 97% 29.81 in 6.0 mi SE 5.8 mph - N/A   Overcast
3:52 AM 75.0 °F - 73.9 °F 96% 29.82 in 7.0 mi SSE 4.6 mph - N/A   Overcast
4:52 AM 75.0 °F - 73.9 °F 96% 29.80 in 8.0 mi SSE 5.8 mph - N/A   Overcast
5:47 AM 75.2 °F - 73.4 °F 94% 29.81 in 9.0 mi SE 3.5 mph - N/A   Overcast
5:52 AM 75.0 °F - 73.0 °F 94% 29.80 in 9.0 mi SE 4.6 mph - N/A   Overcast
6:52 AM 73.9 °F - 73.0 °F 97% 29.82 in 10.0 mi SE 5.8 mph - N/A   Overcast
7:26 AM 73.4 °F - 73.4 °F 100% 29.83 in 9.0 mi Calm Calm - N/A   Overcast
7:45 AM 73.4 °F - 73.4 °F 100% 29.83 in 9.0 mi SE 5.8 mph - N/A   Overcast
7:52 AM 73.9 °F - 73.0 °F 97% 29.83 in 9.0 mi SE 5.8 mph - N/A   Overcast
9:39 AM 77.0 °F - 73.4 °F 89% 29.87 in 10.0 mi South 6.9 mph - N/A   Overcast
9:52 AM 78.1 °F - 75.0 °F 90% 29.86 in 10.0 mi South 6.9 mph - N/A   Overcast
10:34 AM 80.6 °F 85.4 °F 73.4 °F 79% 29.87 in 10.0 mi SW 9.2 mph - N/A   Mostly Cloudy
10:47 AM 80.6 °F 85.4 °F 73.4 °F 79% 29.86 in 10.0 mi SW 8.1 mph - N/A   Scattered Clouds
10:52 AM 81.0 °F 85.8 °F 73.0 °F 77% 29.86 in 10.0 mi SW 9.2 mph 16.1 mph N/A   Scattered Clouds
11:52 AM 84.0 °F 89.6 °F 72.0 °F 67% 29.86 in 10.0 mi WSW 12.7 mph 17.3 mph N/A   Scattered Clouds
12:52 PM 87.1 °F 92.8 °F 71.1 °F 59% 29.86 in 10.0 mi South 13.8 mph 18.4 mph N/A   Partly Cloudy
1:52 PM 87.1 °F 92.0 °F 70.0 °F 57% 29.85 in 10.0 mi SW 12.7 mph - N/A   Scattered Clouds
3:52 PM 84.9 °F 89.4 °F 70.0 °F 61% 29.84 in 10.0 mi SSW 9.2 mph - N/A   Scattered Clouds
4:52 PM 80.1 °F 84.2 °F 73.0 °F 79% 29.87 in 7.0 mi SW 6.9 mph - 0.01 in Rain Light Rain
5:52 PM 77.0 °F - 75.0 °F 94% 29.89 in 8.0 mi South 3.5 mph - 0.03 in   Mostly Cloudy
6:52 PM 75.9 °F - 73.9 °F 94% 29.91 in 8.0 mi South 4.6 mph - 0.00 in   Overcast
7:52 PM 75.0 °F - 72.0 °F 90% 29.93 in 10.0 mi South 5.8 mph - N/A   Partly Cloudy
8:52 PM 73.9 °F - 72.0 °F 93% 29.94 in 10.0 mi South 4.6 mph - N/A   Clear
10:52 PM 73.0 °F - 72.0 °F 96% 29.98 in 9.0 mi South 4.6 mph - N/A   Scattered Clouds
11:50 PM 73.4 °F - 71.6 °F 94% 29.99 in 7.0 mi South 4.6 mph - N/A   Scattered Clouds
11:52 PM 73.0 °F - 72.0 °F 96% 29.98 in 7.0 mi South 4.6 mph - N/A   Scattered Clouds